Date,TemperatureHighF,TemperatureAvgF,TemperatureLowF,DewpointHighF,DewpointAvgF,DewpointLowF,HumidityHigh,HumidityAvg,HumidityLow,PressureMaxIn,PressureMinIn,WindSpeedMaxMPH,WindSpeedAvgMPH,GustSpeedMaxMPH,PrecipitationSumIn
2013-1-6,38,36,31,32,30,28,87,79,70,29.98,29.95,0,0,2,0.00
2013-1-7,59,48,28,40,34,25,90,62,39,29.96,29.69,2,0,8,0.00
2013-1-8,52,51,49,50,48,40,93,89,67,29.69,29.51,2,0,7,1.25
2013-1-9,60,55,50,53,51,47,93,85,76,29.65,29.47,2,0,10,1.49
2013-1-10,70,55,43,48,44,39,92,69,42,29.67,29.60,2,0,8,0.00
2013-1-11,78,64,42,60,54,37,87,69,48,29.65,29.44,2,0,8,0.00
2013-1-12,76,64,0,64,56,33,79,66,55,29.56,29.29,3,1,8,0.00
2013-1-13,55,44,36,33,29,23,67,56,39,29.82,29.56,3,1,10,0.00
2013-1-14,55,41,34,31,26,22,66,57,35,29.90,29.73,2,1,9,0.00
2013-1-15,41,36,32,32,30,24,88,77,61,29.89,29.73,3,1,9,0.02
2013-1-16,57,39,28,24,20,10,78,53,19,29.98,29.81,2,0,7,0.00
2013-1-17,70,45,28,39,30,22,86,60,24,30.11,29.92,2,0,7,0.00
2013-1-18,71,57,29,38,33,26,88,44,21,30.14,29.94,2,0,8,0.00
2013-1-19,73,54,40,49,42,35,87,66,36,29.95,29.77,2,0,6,0.00
2013-1-20,79,50,35,51,40,32,90,71,28,29.88,29.70,1,0,5,0.00
2013-1-21,78,55,39,52,42,35,88,67,31,29.88,29.76,2,0,6,0.00
2013-1-22,77,55,39,52,44,34,85,67,38,29.94,29.82,2,0,7,0.00
2013-1-23,82,60,45,58,50,41,90,72,42,29.96,29.82,2,0,7,0.00
2013-1-24,88,67,53,63,57,48,89,72,38,29.87,29.72,1,0,4,0.00
2013-1-25,88,68,54,63,57,46,85,69,39,29.79,29.64,2,0,5,0.00
2013-1-26,64,56,50,56,50,46,88,81,75,29.83,29.70,1,0,5,0.00
2013-1-27,80,73,62,64,63,56,83,70,54,29.71,29.57,2,1,13,0.00
2013-1-28,79,72,69,66,64,63,82,76,62,29.66,29.49,3,1,11,0.00
2013-1-29,83,70,55,66,55,20,85,61,25,29.50,29.14,3,1,11,0.00
2013-1-30,63,52,37,29,18,3,62,29,12,29.84,29.44,3,1,15,0.00
2013-1-31,76,59,28,32,21,9,85,28,10,29.92,29.79,1,0,8,0.00
2013-2-1,76,45,36,42,34,28,82,67,20,29.99,29.79,2,0,6,0.00
2013-2-2,85,61,42,55,46,38,91,61,27,29.93,29.79,1,0,4,0.00
2013-2-3,77,59,40,47,36,14,83,47,11,29.98,29.65,3,1,10,0.00
2013-2-4,83,64,52,60,55,47,91,73,41,29.65,27.28,2,0,7,0.00
2013-2-5,87,63,47,53,46,33,95,63,16,29.63,29.50,1,0,4,0.00
2013-2-6,80,65,59,61,57,50,91,75,49,29.63,29.45,3,1,8,0.06
2013-2-7,90,69,60,62,52,35,90,61,22,29.73,29.48,2,0,8,0.00
2013-2-9,69,68,66,65,64,63,91,89,86,29.93,29.90,3,2,10,0.00
2013-2-10,70,62,53,66,47,29,94,64,24,30.15,29.87,2,0,8,0.08
2013-2-11,63,55,51,51,45,36,86,69,40,30.26,30.10,4,0,10,0.12
2013-2-12,74,58,48,56,45,17,95,68,17,30.21,29.95,2,0,8,0.02
2013-2-13,69,50,36,39,34,25,85,58,24,30.30,30.16,2,0,8,0.00
2013-2-14,79,54,31,45,34,23,94,56,14,30.26,30.11,2,0,7,0.00
2013-2-15,65,50,36,41,35,25,86,59,37,30.52,30.20,3,1,9,0.00
2013-2-16,70,48,27,35,28,22,93,55,17,30.59,30.33,1,0,10,0.00
2013-2-17,74,47,34,51,34,28,83,65,23,30.34,30.09,2,0,8,0.00
2013-2-18,87,68,57,60,44,15,79,49,10,30.23,29.95,3,1,11,0.00
2013-2-19,70,58,41,37,28,14,72,35,14,30.41,30.22,4,1,12,0.00
2013-2-20,64,57,53,63,46,30,97,71,38,30.25,29.78,4,2,15,0.04
2013-2-21,80,68,47,65,41,11,97,50,10,30.00,29.70,3,1,12,0.01
2013-2-22,62,50,42,39,34,28,76,55,31,30.21,29.97,2,1,8,0.00
2013-2-23,74,53,35,36,32,25,81,48,19,30.21,30.00,2,0,8,0.00
2013-2-24,78,58,36,58,44,33,91,65,35,30.05,29.71,4,1,15,0.00
2013-2-25,66,56,46,59,35,13,94,49,14,29.98,29.68,4,2,18,0.00
2013-2-26,72,53,38,34,29,22,71,43,17,30.09,29.96,2,0,8,0.00
2013-2-27,68,53,42,35,27,15,70,38,16,30.37,29.99,3,1,9,0.00
2013-2-28,66,52,40,30,24,15,64,39,15,30.46,30.32,3,1,10,0.00
2013-3-1,74,51,28,32,23,8,86,44,10,30.43,30.25,3,0,9,0.00
2013-3-2,67,47,35,33,28,19,76,51,17,30.56,30.38,3,1,8,0.00
2013-3-3,81,55,37,42,28,19,77,44,11,30.39,30.05,3,1,8,0.00
2013-3-4,94,72,55,52,44,28,79,45,11,30.06,29.81,2,0,7,0.00
2013-3-5,70,57,39,54,24,2,70,34,10,30.50,29.88,4,2,13,0.00
2013-3-6,70,49,30,29,18,6,70,35,10,30.59,30.34,2,0,8,0.00
2013-3-7,76,56,38,54,40,27,76,57,29,30.38,30.21,4,1,10,0.00
2013-3-8,66,61,58,63,57,52,95,86,69,30.28,30.13,3,1,12,0.02
2013-3-9,74,67,62,69,63,58,92,85,74,30.16,29.76,4,2,14,0.27
2013-3-10,70,59,44,62,42,31,96,57,29,30.26,29.81,4,1,8,0.51
2013-3-11,72,51,32,40,27,8,96,51,10,30.32,30.13,2,0,7,0.00
2013-3-12,85,59,35,42,34,19,92,48,10,30.37,30.19,3,0,9,0.00
2013-3-13,81,63,44,39,35,30,67,38,16,30.57,30.37,3,1,11,0.00
2013-3-14,83,64,45,54,44,38,90,53,25,30.51,30.33,2,1,8,0.00
2013-3-18,85,73,64,64,61,58,93,69,43,29.91,29.78,2,1,4,0.00
2013-3-19,91,71,49,66,48,35,83,50,14,30.13,29.92,3,1,7,0.00
2013-3-20,86,68,53,63,50,35,95,57,23,30.38,29.97,3,1,7,0.12
2013-3-21,76,65,55,59,49,38,74,57,35,30.20,29.75,2,1,4,0.00
2013-3-22,87,74,63,65,61,49,86,68,43,29.88,29.77,2,1,4,0.00
2013-3-23,80,62,51,60,52,46,90,71,43,29.93,29.72,1,0,2,0.00
2013-3-24,64,53,42,55,24,18,89,34,20,30.30,29.84,4,1,11,0.00
2013-3-25,66,49,33,27,18,4,69,36,10,30.52,30.30,2,0,8,0.00
2013-3-26,73,52,29,31,19,7,79,34,10,30.61,30.40,2,0,8,0.00
2013-3-27,73,59,40,48,37,23,71,47,28,30.44,30.26,3,1,8,0.00
2013-3-28,79,64,55,59,54,48,84,71,49,30.33,30.23,2,1,10,0.00
2013-3-29,82,70,59,60,57,55,93,67,42,30.30,30.17,3,1,8,0.00
2013-3-30,86,73,65,63,61,58,86,67,43,30.23,30.00,2,0,6,0.00
2013-3-31,85,71,62,70,64,60,93,78,49,30.11,29.99,2,0,8,0.08
2013-4-1,90,74,56,65,61,55,96,68,37,30.19,30.01,2,0,10,0.01
2013-4-2,79,68,52,67,63,50,98,87,62,30.13,29.95,3,1,12,1.39
2013-4-3,55,52,50,55,51,48,99,96,92,30.22,29.97,2,0,8,0.33
2013-4-4,61,52,47,46,44,40,90,74,54,30.36,30.24,1,0,4,0.33
2013-4-5,78,57,38,49,44,36,97,65,30,30.40,30.18,2,0,7,0.00
2013-4-6,85,66,52,58,53,46,90,65,38,30.19,29.96,2,1,10,0.00
2013-4-7,85,71,63,65,61,57,85,72,48,30.05,29.87,4,1,12,0.00
2013-4-8,74,70,68,66,64,62,89,81,75,29.94,29.81,2,1,3,0.00
2013-4-9,87,76,70,70,67,65,87,75,51,29.84,29.71,3,2,13,0.00
2013-4-10,75,57,44,69,51,40,96,82,63,30.09,29.75,4,1,14,0.18
2013-4-11,73,57,42,43,39,35,81,55,28,30.11,29.92,2,0,9,0.00
2013-4-12,86,63,41,51,43,34,96,56,16,30.13,29.97,2,0,11,0.00
2013-4-13,65,58,40,55,49,37,90,73,59,30.09,30.05,2,0,3,0.00
2013-4-14,91,74,58,68,62,54,91,67,39,29.95,29.71,2,1,5,0.00
2013-4-15,93,79,71,68,66,-54,88,67,42,29.93,29.79,2,1,11,0.05
2013-4-16,91,79,69,70,66,63,86,67,47,30.02,29.92,3,1,18,0.00
2013-4-17,87,77,73,72,70,68,95,79,54,30.00,29.79,3,1,12,0.00
2013-4-18,75,63,50,72,53,37,94,70,44,30.24,29.77,3,1,11,0.11
2013-4-19,74,57,38,42,30,15,88,43,12,30.43,30.24,2,1,8,0.00
2013-4-20,77,59,1,47,31,-42,92,42,10,30.36,30.11,3,1,13,0.02
2013-4-21,83,66,49,56,50,45,89,60,34,30.28,30.12,2,1,8,0.00
2013-4-24,60,34,0,54,45,38,55,32,44,30.31,29.93,0,0,4,0.00
2013-4-25,71,62,54,48,43,40,60,51,34,30.07,29.91,2,0,8,0.00
2013-4-26,76,62,60,68,58,7,93,86,46,29.91,29.73,2,0,8,0.01
2013-4-27,93,77,69,72,67,62,95,72,37,29.82,29.64,2,0,10,0.05
2013-4-28,82,69,62,68,64,60,96,85,60,29.77,29.72,2,0,5,0.00
2013-4-29,89,72,67,68,64,62,90,77,41,29.66,29.53,2,0,5,0.00
2013-4-30,127,76,63,71,64,61,95,69,43,29.58,29.45,2,0,104,0.02
2013-5-1,92,80,68,68,66,64,92,65,41,29.67,29.52,2,0,9,0.00
2013-5-2,76,56,48,65,48,35,92,74,57,30.09,29.65,4,2,11,0.01
2013-5-3,74,57,41,37,29,13,75,42,11,30.09,29.80,3,1,11,0.00
2013-5-4,90,60,37,44,33,21,88,49,10,29.82,29.61,2,0,6,0.00
2013-5-5,83,65,46,46,42,36,73,45,27,29.89,29.73,2,0,6,0.00
2013-5-6,73,62,54,50,48,44,73,60,42,29.83,29.75,0,0,2,0.00
2013-5-7,91,71,46,56,49,43,94,53,21,29.82,29.66,1,0,8,0.00
2013-5-8,87,75,64,64,61,54,88,64,44,29.75,29.60,2,1,9,0.00
2013-5-9,73,73,68,66,63,62,93,71,69,30.00,29.59,3,2,10,0.04
2013-5-10,95,72,60,69,62,55,97,78,28,30.06,29.81,3,0,12,1.25
2013-5-11,84,70,60,66,58,49,99,68,35,30.17,30.01,2,0,7,0.00
2013-5-12,83,63,53,60,51,39,95,69,24,30.28,30.13,4,0,8,0.00
2013-5-13,92,72,48,56,50,39,95,54,19,30.27,30.15,2,0,8,0.00
2013-5-14,90,77,60,67,60,53,90,58,31,30.23,30.00,2,1,11,0.00
2013-5-15,89,76,65,73,69,64,99,81,54,30.10,29.82,3,1,12,0.52
2013-5-16,94,79,70,73,70,68,97,77,45,29.89,29.71,2,1,11,0.06
2013-5-17,96,84,75,74,72,69,86,68,46,29.91,29.79,2,1,9,0.00
2013-5-18,98,84,72,72,68,63,91,62,37,29.92,29.80,2,1,11,0.00
2013-5-19,95,83,73,72,69,65,85,65,45,29.86,29.72,3,1,14,0.00
2013-5-20,96,83,74,71,70,67,86,65,41,29.85,29.70,2,1,15,0.00
2013-5-21,93,80,71,74,70,58,87,71,51,29.91,29.72,3,1,8,0.00
2013-5-22,97,80,57,72,60,48,94,57,23,29.95,29.81,2,0,8,0.00
2013-5-23,90,81,0,73,71,70,89,71,54,30.05,29.88,2,0,11,0.00
2013-5-24,84,74,67,73,70,66,98,89,69,30.13,30.02,2,0,7,1.05
2013-5-25,85,75,0,74,69,67,99,82,63,30.14,30.03,3,1,13,1.18
2013-5-26,81,81,81,67,67,67,63,63,63,30.10,29.97,2,2,4,1.18
2013-5-27,81,81,81,67,67,67,63,63,63,30.02,29.84,2,2,4,1.18
2013-5-28,81,81,81,67,67,67,63,63,63,30.56,29.77,2,2,4,1.18
2013-5-29,81,81,78,71,68,67,81,65,63,29.90,28.28,3,2,11,1.18
2013-5-30,92,77,0,73,72,70,85,67,52,29.86,29.75,2,1,16,0.00
2013-5-31,94,84,77,75,73,71,86,70,53,29.88,29.75,2,1,6,0.00
2013-6-1,100,85,77,75,73,71,85,68,43,29.92,29.80,2,1,10,0.00
2013-6-2,92,79,68,74,66,59,95,66,34,30.08,29.92,2,0,10,0.11
2013-6-3,95,80,49,74,66,-5,96,65,10,30.01,29.84,97,2,97,0.00
2013-6-4,93,85,69,71,67,-5,94,57,10,29.92,29.81,98,2,98,0.00
2013-6-5,124,89,47,93,67,31,90,51,34,29.92,29.75,119,4,119,0.02
2013-6-6,88,88,88,66,66,66,49,49,49,29.96,29.79,0,0,2,0.00
2013-6-7,91,86,68,66,59,13,63,43,10,30.03,29.89,0,0,4,0.00
2013-6-8,95,68,52,66,37,-3,63,38,10,29.95,29.80,61,21,61,0.00
2013-6-9,92,63,52,72,22,-3,86,29,10,30.00,29.85,61,40,61,0.00
2013-6-10,99,85,69,75,69,58,97,64,27,30.01,29.91,2,0,8,0.00
2013-6-11,84,84,84,71,71,71,67,67,67,30.05,29.95,0,0,1,0.00
2013-6-12,84,81,0,72,71,71,76,65,67,30.07,0.00,1,0,4,0.00
2013-6-13,100,84,0,76,73,71,93,58,41,30.08,29.95,1,0,4,0.00
2013-6-14,0,0,0,73,73,73,0,0,100,30.02,29.92,0,0,0,0.00
2013-6-15,87,82,78,74,73,73,85,76,63,29.96,29.92,0,0,0,0.00
2013-6-16,102,88,75,75,70,64,92,61,33,30.03,29.91,2,0,11,0.00
2013-6-17,102,88,77,75,70,64,84,59,32,30.02,29.86,2,0,9,0.00
2013-6-18,97,83,70,76,72,67,97,71,42,30.04,29.89,1,0,7,0.21
2013-6-19,101,88,74,76,70,66,92,59,35,29.99,29.90,2,0,10,0.00
2013-6-20,101,88,76,73,69,62,87,57,30,30.07,29.95,2,0,11,0.00
2013-6-21,100,88,77,75,68,59,87,55,26,30.09,29.97,2,1,10,0.00
2013-6-22,102,88,76,74,68,60,88,56,27,30.06,29.89,2,1,11,0.00
2013-6-23,96,86,77,73,67,57,87,56,30,30.00,29.89,2,1,8,0.00
2013-6-24,102,88,76,74,70,64,87,59,29,30.05,29.90,3,1,13,0.00
2013-6-25,104,89,0,73,68,60,86,55,25,30.02,29.87,2,1,12,0.00
2013-6-26,105,90,77,73,69,61,82,55,26,29.99,29.88,2,1,8,0.00
2013-6-27,107,90,76,73,65,49,84,50,17,30.05,29.91,2,0,9,0.00
2013-6-28,111,92,75,74,66,56,84,48,18,30.02,29.82,1,0,7,0.00
2013-6-29,113,94,72,72,63,48,82,43,13,29.89,29.76,2,0,8,0.00
2013-6-30,101,86,71,72,66,57,91,54,30,29.99,29.84,2,0,10,0.02
2013-7-1,96,83,69,69,54,46,69,40,20,30.04,29.93,2,0,11,0.00
2013-7-2,99,80,-13,62,51,-20,86,44,13,30.10,29.97,2,0,8,0.00
2013-7-3,101,82,64,58,48,39,71,33,12,30.06,30.01,2,0,5,0.00
2013-7-5,104,95,81,71,57,50,72,30,18,30.00,29.84,2,1,8,0.00
2013-7-6,103,88,71,73,65,54,86,51,21,29.96,29.83,2,1,11,0.00
2013-7-7,99,87,0,74,69,19,88,56,10,30.00,29.88,24,1,24,0.05
2013-7-8,94,84,76,76,73,67,92,71,49,30.13,30.00,2,0,7,0.07
2013-7-9,104,93,-39,73,66,-57,57,42,30,30.17,30.00,3,1,7,0.18
2013-7-10,98,43,0,65,65,65,34,15,34,30.11,30.06,2,1,2,0.00
2013-7-14,0,0,0,65,65,65,0,0,100,29.94,29.89,0,0,0,0.00
2013-7-15,0,0,0,65,65,65,0,0,100,30.05,29.92,0,0,0,0.00
2013-7-16,0,0,0,65,65,65,0,0,100,30.16,30.03,0,0,0,0.00
2013-7-17,0,0,0,65,65,65,0,0,100,30.20,30.11,0,0,0,0.00
2013-7-18,95,84,0,79,70,65,99,66,41,30.19,30.01,1,0,6,2.15
2013-7-19,95,95,95,68,68,68,41,41,41,30.10,29.91,1,1,3,2.15
2013-7-20,100,93,78,72,69,66,80,47,35,30.03,29.86,4,1,11,2.15
2013-7-21,91,86,73,77,73,71,95,68,56,29.97,29.88,0,0,10,0.00
2013-7-22,91,91,91,73,73,73,56,56,56,30.00,29.90,0,0,2,0.00
2013-7-23,100,85,-35,73,66,-71,56,46,10,30.02,29.88,4,0,100,0.02
2013-7-28,87,85,84,73,72,71,69,64,59,29.95,29.91,1,0,6,0.26
2013-7-29,101,88,78,75,70,61,86,59,29,30.03,29.94,2,1,11,0.00
2013-7-30,103,88,76,75,70,63,89,59,31,30.11,29.97,2,0,11,0.00
2013-7-31,106,88,75,74,67,58,90,56,22,30.10,29.94,1,0,4,0.00
2013-8-1,107,92,76,74,68,58,79,50,21,30.05,29.91,3,0,24,0.00
2013-8-2,104,91,77,70,66,58,68,47,22,30.00,29.89,1,0,8,0.00
2013-8-3,104,90,77,75,69,61,86,54,27,30.03,29.93,2,0,8,0.00
2013-8-4,104,90,76,76,72,66,91,59,34,30.09,29.93,1,0,6,0.00
2013-8-5,106,91,75,74,69,61,87,53,25,30.06,29.88,2,0,13,0.00
2013-8-6,106,91,76,75,70,59,87,54,25,29.97,29.82,2,0,10,0.00
2013-8-7,108,92,78,76,70,56,83,53,23,29.94,29.78,2,0,9,0.00
2013-8-8,108,91,76,75,68,56,86,51,19,29.92,29.78,2,0,9,0.00
2013-8-9,107,90,75,75,65,47,92,51,17,29.99,29.87,2,0,7,0.00
2013-8-10,107,91,76,74,69,60,85,52,25,30.07,29.94,2,0,9,0.00
2013-8-11,104,89,77,77,71,65,86,59,30,30.10,29.97,2,0,11,0.00
2013-8-12,103,89,75,74,70,64,89,57,30,30.09,29.94,1,0,7,0.00
2013-8-13,107,92,77,75,68,58,85,50,21,30.05,29.89,1,0,6,0.00
2013-8-14,111,88,77,74,70,60,87,59,22,30.04,29.91,3,0,13,0.01
2013-8-15,99,82,73,77,73,70,99,78,40,30.04,29.93,2,0,8,0.22
2013-8-16,96,82,71,79,71,60,99,73,31,30.08,29.94,2,0,6,0.01
2013-8-17,99,84,68,70,64,56,96,58,28,30.07,29.94,3,0,9,0.00
2013-8-18,102,83,65,70,60,50,96,52,18,30.08,29.98,2,0,8,0.00
2013-8-19,100,84,68,69,62,58,84,52,26,30.07,29.93,2,0,10,0.00
2013-8-20,100,85,68,70,65,55,90,55,23,30.05,29.94,2,0,10,0.00
2013-8-21,103,86,72,75,70,65,92,62,30,30.10,29.97,2,0,11,0.00
2013-8-22,101,88,74,76,70,65,92,60,32,30.11,29.94,2,0,8,0.00
2013-8-23,103,89,74,76,69,62,91,57,29,30.04,29.91,2,0,11,0.00
2013-8-24,105,90,77,75,69,63,82,53,28,30.07,29.94,3,0,12,0.00
2013-8-25,99,88,73,74,70,66,90,59,35,30.10,30.02,3,1,13,0.00
2013-8-26,96,83,75,73,71,68,90,70,41,30.15,30.03,4,1,13,0.00
2013-8-27,90,80,74,76,71,23,96,76,43,30.14,30.03,11,0,11,0.01
2013-8-28,102,86,70,76,70,-73,99,64,31,30.13,30.00,3,0,12,0.00
2013-8-29,107,89,71,73,66,39,91,53,13,30.11,29.95,20,0,20,0.00
2013-8-30,108,91,74,70,65,58,79,47,20,30.04,29.88,1,0,5,0.00
2013-8-31,89,89,89,68,68,68,49,49,49,29.87,29.87,0,0,0,0.00
2013-9-1,106,97,77,73,67,63,77,39,27,29.93,29.81,2,0,8,0.00
2013-9-2,106,89,76,79,71,62,85,59,27,29.99,29.85,2,0,8,0.06
2013-9-3,108,87,72,76,70,60,96,61,22,30.02,29.89,2,0,9,0.01
2013-9-4,106,89,50,74,69,41,87,56,28,30.06,29.93,2,0,7,0.00
2013-9-5,102,87,72,73,68,62,88,58,29,30.12,29.99,2,0,8,0.00
2013-9-6,102,87,72,74,70,63,94,60,31,30.11,29.95,2,0,8,0.00
2013-9-7,103,85,73,77,71,64,93,67,30,30.05,29.91,4,0,12,0.00
2013-9-8,100,82,71,76,71,66,97,72,35,30.01,29.89,1,0,8,0.00
2013-9-9,99,81,72,74,71,66,94,73,36,30.01,29.92,2,0,11,0.00
2013-9-10,98,81,72,74,71,66,99,74,36,30.08,29.98,3,0,11,0.00
2013-9-11,98,85,75,75,69,60,94,64,33,30.12,29.99,3,0,10,0.00
2013-9-12,101,85,70,76,68,61,95,61,28,30.09,29.93,2,0,9,0.00
2013-9-13,103,86,69,72,64,58,90,52,24,29.99,29.82,3,0,10,0.00
2013-9-14,102,87,71,72,66,57,83,53,26,29.96,29.85,2,0,9,0.00
2013-9-15,97,85,73,74,70,65,93,64,38,30.04,29.94,2,0,11,0.00
2013-9-16,91,78,74,75,74,71,95,88,52,30.07,29.97,2,0,4,0.06
2013-9-17,96,83,72,79,72,68,99,75,40,30.08,29.93,2,0,8,0.01
2013-9-18,99,84,72,76,70,64,97,67,33,30.04,29.88,3,0,10,0.00
2013-9-19,97,82,76,78,74,71,98,78,46,29.97,29.83,2,0,10,0.19
2013-9-20,77,74,70,76,74,70,99,99,96,29.90,29.81,2,0,8,3.59
2013-9-21,71,69,68,70,67,66,99,93,91,29.96,29.85,116,4,116,0.00
2013-9-22,86,75,0,66,55,42,99,57,30,29.93,29.80,2,1,8,0.01
2013-9-23,86,86,86,51,51,51,30,30,30,29.87,29.76,1,1,5,0.01
2013-9-24,86,86,86,51,51,51,30,30,30,29.95,29.84,1,1,5,0.01
2013-9-25,86,78,63,68,63,51,94,63,30,29.92,29.78,1,0,5,0.01
2013-9-26,92,85,64,70,66,58,82,56,44,29.91,29.82,0,0,49,1.51
2013-9-27,95,82,76,78,75,67,93,79,44,29.93,29.83,2,0,8,0.00
2013-9-28,92,82,76,79,76,20,96,82,54,30.01,29.88,2,0,6,0.25
2013-9-29,78,74,65,74,71,64,98,92,68,30.08,29.94,0,0,3,0.25
2013-9-30,94,74,60,71,61,49,99,70,26,29.98,29.81,1,0,4,0.01
2013-10-1,99,77,63,74,68,59,99,76,41,29.94,29.84,2,0,27,0.00
2013-10-2,97,82,75,76,73,66,95,75,45,29.98,29.86,9,0,11,0.00
2013-10-3,96,84,74,77,72,68,96,70,43,29.95,29.83,2,0,11,0.00
2013-10-4,96,82,73,74,71,69,94,71,43,29.93,29.84,2,0,8,0.00
2013-10-5,96,77,63,75,64,41,97,67,40,30.10,29.89,2,0,8,0.00
2013-10-6,85,66,52,61,48,32,98,61,17,30.16,30.06,2,0,8,0.24
2013-10-7,92,66,46,57,48,38,97,62,18,30.20,30.05,0,0,4,0.00
2013-10-8,92,69,49,60,51,44,98,59,21,30.11,29.98,2,0,8,0.00
2013-10-9,89,72,54,64,57,50,95,63,34,30.07,29.96,2,0,8,0.00
2013-10-10,90,75,64,69,65,62,97,72,44,30.05,29.89,2,0,12,0.00
2013-10-11,93,79,71,75,72,67,90,79,52,29.97,29.84,2,0,8,0.01
2013-10-12,97,84,76,78,74,71,98,76,47,30.02,29.91,1,0,5,0.00
2013-10-13,76,71,67,75,71,66,99,99,93,30.16,30.06,2,0,8,1.78
2013-10-14,83,75,71,76,73,71,99,93,75,30.11,29.93,1,0,8,0.07
2013-10-15,86,74,58,74,69,56,96,85,63,30.04,29.88,1,0,6,0.00
2013-10-16,62,58,53,60,56,53,99,95,89,30.10,29.99,1,0,4,0.64
2013-10-17,81,62,49,57,51,47,99,71,31,30.15,29.98,1,0,5,0.00
2013-10-18,73,64,54,64,59,53,96,85,68,30.02,29.89,1,0,6,0.05
2013-10-19,73,58,46,64,45,38,90,67,30,30.22,30.02,2,0,8,0.00
2013-10-20,80,58,-4,54,46,-14,99,69,31,30.12,29.91,2,0,24,0.00
2013-10-21,83,70,60,68,61,51,91,76,60,30.10,29.91,2,0,6,0.00
2013-10-22,82,64,49,56,47,35,88,60,21,30.19,30.08,2,0,6,0.00
2013-10-23,90,64,44,57,48,37,99,64,18,30.85,30.08,0,0,4,0.00
2013-10-24,90,64,45,58,49,41,99,65,21,30.25,30.14,1,0,5,0.00
2013-10-25,83,66,49,63,57,48,99,75,46,30.33,30.20,3,0,9,0.00
2013-10-26,86,71,64,66,63,60,92,78,51,30.23,30.06,2,0,8,0.00
2013-10-27,78,68,63,67,64,62,99,88,63,30.13,30.02,0,0,4,0.09
2013-10-28,85,73,65,71,67,64,99,83,57,30.09,29.98,2,0,11,0.00
2013-10-29,85,76,71,72,69,67,90,79,59,30.08,29.97,2,0,11,0.00
2013-10-30,114,102,73,72,52,44,97,33,10,30.05,29.81,2,0,9,0.02
2013-10-31,114,89,51,77,46,32,99,33,10,29.92,29.75,2,0,8,0.04
2013-11-1,89,64,45,61,46,33,99,63,14,30.10,29.83,3,0,5,0.00
2013-11-2,78,61,47,51,41,28,86,53,18,30.31,30.10,2,0,7,0.00
2013-11-3,76,57,41,54,43,37,98,67,27,30.25,30.02,2,0,8,0.00
2013-11-4,66,62,59,65,60,54,98,90,76,30.08,29.97,1,0,11,0.04
2013-11-5,83,71,64,71,68,63,99,89,62,30.02,29.90,2,0,10,0.00
2013-11-6,72,59,45,70,56,43,99,91,64,30.36,29.99,2,0,8,1.05
2013-11-7,69,52,38,48,42,38,99,75,33,30.49,30.36,2,0,5,0.00
2013-11-8,69,56,47,49,44,37,92,67,34,30.40,30.17,1,0,6,0.00
2013-11-9,69,62,55,58,54,45,83,74,64,30.20,30.11,0,0,5,0.00
2013-11-10,76,64,0,59,55,-41,91,71,10,30.32,30.18,11,0,11,0.38
2013-11-11,81,68,6,57,52,-18,98,62,31,30.30,30.16,1,0,3,0.05
2013-11-12,80,58,41,56,45,25,99,64,41,30.65,30.26,3,1,10,0.00
2013-11-13,64,43,30,32,28,24,83,57,26,30.67,30.40,1,0,6,0.00
2013-11-14,67,48,29,49,36,28,98,69,28,30.40,30.05,1,0,7,0.00
2013-11-15,68,33,0,60,55,49,99,49,71,30.05,29.86,0,0,4,0.00
2013-11-16,81,72,-16,71,66,-25,93,81,63,29.92,29.75,1,0,52,0.00
2013-11-17,96,76,59,74,65,-22,96,74,10,29.98,29.78,2,0,4,0.00
2013-11-18,76,65,54,60,54,0,94,70,10,30.12,29.97,9,0,49,0.00
2013-11-19,67,66,60,54,54,50,76,65,64,30.17,30.00,2,0,9,0.00
2013-11-20,76,62,0,66,56,1,97,72,10,30.03,29.90,2,0,27,0.00
2013-11-21,80,73,-7,73,68,-28,99,88,10,30.07,29.93,97,1,97,0.07
2013-11-22,69,49,0,69,47,10,99,92,10,30.42,30.06,24,1,4,0.39
2013-11-23,42,38,35,40,36,-16,99,94,10,30.49,30.39,2,0,7,0.08
2013-11-24,42,39,36,39,35,31,92,86,72,30.51,30.32,1,0,8,0.11
2013-11-25,41,38,35,39,36,34,96,92,87,30.36,30.10,1,0,8,0.27
2013-11-26,52,43,38,39,34,30,90,74,50,30.38,30.14,3,0,13,0.00
2013-11-27,59,40,30,31,27,20,91,63,25,30.50,30.36,2,0,6,0.00
2013-11-28,62,41,30,39,30,25,98,72,27,30.45,30.34,1,0,6,0.00
2013-11-29,70,48,28,50,42,27,98,81,45,30.52,30.35,1,0,6,0.00
2013-11-30,66,57,50,57,51,45,97,81,66,30.38,30.19,1,0,6,0.00
2013-12-1,76,63,52,63,58,51,98,84,59,30.21,29.95,1,0,4,0.00
2013-12-2,88,62,-20,62,51,-36,99,74,25,29.95,29.67,0,0,3,0.00
2013-12-3,89,59,40,58,48,39,97,71,26,29.73,29.60,2,0,3,0.00
2013-12-4,78,61,49,66,57,46,99,87,64,29.81,29.69,1,0,8,0.00
2013-12-5,63,43,32,62,37,25,99,79,64,30.13,29.79,2,1,10,0.00
2013-12-6,35,32,27,32,28,22,98,87,77,30.46,30.07,3,1,8,0.06
2013-12-7,31,28,25,24,22,19,81,77,72,30.49,30.30,2,0,4,0.00